User: anonymous   Login
Location: Fort Wayne
(41.1310°N, 85.1290°W)
Time: 12:51:05
(UTC-04:00)
Language:

SR - Orbit

View from above orbital plane
View from above orbital plane
View from above satellite
View from above satellite

Ground track
Ground track

The orbit data is extracted from the following two-line orbital elements,

1 00046U 60007B   15090.18780872  .00000966  00000-0  22030-3 0  9990
2 00046 066.6906 152.3853 0205326 111.6036 250.7084 14.48380619863061
Epoch (UTC): 31 March 2015 04:30:26
Eccentricity: 0.0205326
inclination: 66.6906°
perigee height: 585 km
apogee height: 877 km
right ascension of ascending node: 152.3853°
argument of perigee: 111.6036°
revolutions per day: 14.48380619
mean anomaly at epoch: 250.7084°
orbit number at epoch: 86306

The dashed part of the orbit path shows where the satellite is in the earth's shadow,  

DLR